| time (UTC) | temp F | wind direction | speed knots | gust knots | rain 1hr in | rain 24hr in | rain mn in | humidity % | barometer mb |
| 20260503212731 | 72 | 61 | 1.7 | 5.2 | 0.00 | 0.00 | 0.00 | 46 | 1012.1 |
| 20260503212230 | 71 | 41 | 1.7 | 5.2 | 0.00 | 0.00 | 0.00 | 46 | 1012.1 |
| 20260503211730 | 71 | 105 | 1.7 | 3.5 | 0.00 | 0.00 | 0.00 | 48 | 1012.2 |
| 20260503210733 | 69 | 56 | 1.7 | 5.2 | 0.00 | 0.00 | 0.00 | 48 | 1012.3 |
| 20260503210229 | 68 | 83 | 1.7 | 5.2 | 0.00 | 0.00 | 0.00 | 50 | 1012.4 |
| 20260503205729 | 68 | 328 | 1.7 | 4.3 | 0.00 | 0.00 | 0.00 | 52 | 1012.5 |
| 20260503205229 | 70 | 319 | 1.7 | 4.3 | 0.00 | 0.00 | 0.00 | 53 | 1012.9 |
| 20260503205003 | 71 | 337 | 1.7 | 4.3 | 0.00 | 0.00 | 0.00 | 48 | 1012.8 |
| 20260503204229 | 70 | 355 | 1.7 | 4.3 | 0.00 | 0.00 | 0.00 | 46 | 1012.8 |
| 20260503203732 | 70 | 38 | 1.7 | 3.5 | 0.00 | 0.00 | 0.00 | 51 | 1012.9 |
| 20260503202959 | 70 | 330 | 1.7 | 3.5 | 0.00 | 0.00 | 0.00 | 51 | 1013.1 |
| 20260503202230 | 69 | 41 | 1.7 | 4.3 | 0.00 | 0.00 | 0.00 | 48 | 1013.1 |
| 20260503201729 | 69 | 95 | 1.7 | 4.3 | 0.00 | 0.00 | 0.00 | 49 | 1013.2 |
| 20260503201229 | 68 | 42 | 1.7 | 3.5 | 0.00 | 0.00 | 0.00 | 52 | 1013.3 |
| 20260503200729 | 67 | 301 | 2.6 | 4.3 | 0.00 | 0.00 | 0.00 | 57 | 1013.4 |
| 20260503200501 | 67 | 32 | 1.7 | 4.3 | 0.00 | 0.00 | 0.00 | 59 | 1013.5 |
| 20260503195729 | 67 | 309 | 1.7 | 5.2 | 0.00 | 0.00 | 0.00 | 58 | 1013.5 |
| 20260503195229 | 69 | 87 | 1.7 | 5.2 | 0.00 | 0.00 | 0.00 | 58 | 1013.7 |
| 20260503194734 | 67 | 353 | 1.7 | 4.3 | 0.00 | 0.00 | 0.00 | 60 | 1013.6 |
| 20260503194233 | 66 | 309 | 1.7 | 6.1 | 0.00 | 0.00 | 0.00 | 60 | 1013.6 |
| 20260503193727 | 66 | 52 | 2.6 | 6.1 | 0.00 | 0.00 | 0.00 | 61 | 1013.6 |
| 20260503193222 | 67 | 55 | 1.7 | 6.1 | 0.00 | 0.00 | 0.00 | 59 | 1013.5 |
| 20260503192721 | 68 | 266 | 1.7 | 4.3 | 0.00 | 0.00 | 0.00 | 57 | 1013.6 |
| 20260503192221 | 68 | 60 | 1.7 | 5.2 | 0.00 | 0.00 | 0.00 | 57 | 1013.6 |
| 20260503191721 | 67 | 41 | 2.6 | 7.0 | 0.00 | 0.00 | 0.00 | 56 | 1013.7 |
| 20260503191219 | 67 | 295 | 2.6 | 7.0 | 0.00 | 0.00 | 0.00 | 58 | 1013.7 |
| 20260503190717 | 68 | 32 | 2.6 | 6.1 | 0.00 | 0.00 | 0.00 | 57 | 1013.6 |
| 20260503190215 | 67 | 74 | 2.6 | 6.1 | 0.00 | 0.00 | 0.00 | 58 | 1013.6 |
| 20260503185715 | 67 | 0 | 2.6 | 6.1 | 0.00 | 0.00 | 0.00 | 59 | 1013.6 |
| 20260503185214 | 67 | 11 | 1.7 | 6.1 | 0.00 | 0.00 | 0.00 | 58 | 1013.6 |
| 20260503184715 | 67 | 22 | 1.7 | 6.1 | 0.00 | 0.00 | 0.00 | 59 | 1013.8 |
| 20260503184215 | 66 | 51 | 1.7 | 6.1 | 0.00 | 0.00 | 0.00 | 59 | 1013.8 |
| 20260503183715 | 66 | 122 | 1.7 | 5.2 | 0.00 | 0.00 | 0.00 | 60 | 1013.8 |
| 20260503183215 | 65 | 98 | 1.7 | 5.2 | 0.00 | 0.00 | 0.00 | 59 | 1013.9 |
| 20260503182716 | 66 | 11 | 1.7 | 4.3 | 0.00 | 0.00 | 0.00 | 59 | 1014.0 |
| 20260503182214 | 65 | 45 | 1.7 | 6.1 | 0.00 | 0.00 | 0.00 | 60 | 1014.0 |
| 20260503181716 | 64 | 12 | 2.6 | 7.0 | 0.00 | 0.00 | 0.00 | 61 | 1014.0 |
| 20260503181215 | 65 | 67 | 2.6 | 7.0 | 0.00 | 0.00 | 0.00 | 62 | 1014.0 |
| 20260503180708 | 65 | 104 | 2.6 | 8.7 | 0.00 | 0.00 | 0.00 | 64 | 1014.0 |
| 20260503175709 | 64 | 62 | 1.7 | 6.1 | 0.00 | 0.00 | 0.00 | 64 | 1014.1 |
| 20260503175209 | 63 | 253 | 1.7 | 10.4 | 0.00 | 0.00 | 0.00 | 65 | 1014.2 |
| 20260503174707 | 63 | 115 | 1.7 | 10.4 | 0.00 | 0.00 | 0.00 | 66 | 1014.2 |
| 20260503174207 | 63 | 94 | 1.7 | 7.0 | 0.00 | 0.00 | 0.00 | 66 | 1014.1 |
| 20260503173715 | 62 | 109 | 2.6 | 7.0 | 0.00 | 0.00 | 0.00 | 65 | 1014.1 |
| 20260503173216 | 62 | 130 | 2.6 | 6.1 | 0.00 | 0.00 | 0.00 | 66 | 1014.2 |
| 20260503172715 | 62 | 20 | 1.7 | 6.1 | 0.00 | 0.00 | 0.00 | 66 | 1014.3 |
| 20260503172213 | 62 | 126 | 1.7 | 6.1 | 0.00 | 0.00 | 0.00 | 67 | 1014.3 |
| 20260503171707 | 61 | 145 | 2.6 | 6.1 | 0.00 | 0.00 | 0.00 | 67 | 1014.3 |
| 20260503171207 | 62 | 113 | 2.6 | 6.1 | 0.00 | 0.00 | 0.00 | 68 | 1014.4 |
| 20260503170706 | 61 | 118 | 1.7 | 6.1 | 0.00 | 0.00 | 0.00 | 67 | 1014.3 |
| 20260503170206 | 61 | 91 | 1.7 | 7.0 | 0.00 | 0.00 | 0.00 | 68 | 1014.3 |
| 20260503160201 | 60 | 84 | 1.7 | 4.3 | 0.00 | 0.00 | 0.00 | 74 | 1014.6 |
| 20260503150655 | 57 | 119 | 3.5 | 6.1 | 0.00 | 0.00 | 0.00 | 78 | 1014.7 |
| 20260503150409 | 57 | 107 | 2.6 | 6.1 | 0.00 | 0.00 | 0.00 | 78 | 1014.7 |
| 20260503140128 | 58 | 191 | 3.5 | 8.7 | 0.00 | 0.00 | 0.00 | 77 | 1014.6 |
| 20260503131353 | 58 | 120 | 1.7 | 7.0 | 0.00 | 0.00 | 0.00 | 75 | 1014.4 |
| 20260503130623 | 58 | 330 | 1.7 | 7.0 | 0.00 | 0.00 | 0.00 | 75 | 1014.4 |
| 20260503130347 | 58 | 125 | 1.7 | 7.0 | 0.00 | 0.00 | 0.00 | 75 | 1014.3 |
| 20260503120122 | 59 | 134 | 2.6 | 7.0 | 0.00 | 0.00 | 0.00 | 73 | 1014.5 |
| 20260503110604 | 60 | 115 | 3.5 | 9.6 | 0.00 | 0.00 | 0.00 | 71 | 1014.5 |
| 20260503110104 | 60 | 157 | 3.5 | 7.8 | 0.00 | 0.00 | 0.00 | 71 | 1014.6 |
| 20260503100103 | 60 | 107 | 1.7 | 7.8 | 0.00 | 0.00 | 0.00 | 69 | 1014.3 |
| 20260503090323 | 64 | 139 | 1.7 | 7.0 | 0.00 | 0.00 | 0.00 | 55 | 1014.5 |
| 20260503081530 | 65 | 285 | 2.6 | 7.0 | 0.00 | 0.00 | 0.00 | 53 | 1014.6 |
| 20260503081028 | 66 | 91 | 3.5 | 7.0 | 0.00 | 0.00 | 0.00 | 52 | 1014.6 |
| 20260503080529 | 66 | 13 | 2.6 | 7.0 | 0.00 | 0.00 | 0.00 | 50 | 1014.4 |
| 20260503072529 | 68 | 243 | 1.7 | 4.3 | 0.00 | 0.00 | 0.00 | 44 | 1014.2 |
| 20260503072030 | 68 | 82 | 1.7 | 7.0 | 0.00 | 0.00 | 0.00 | 44 | 1014.3 |
| 20260503071529 | 67 | 76 | 2.6 | 7.0 | 0.00 | 0.00 | 0.00 | 44 | 1014.2 |
| 20260503071035 | 68 | 110 | 1.7 | 6.1 | 0.00 | 0.00 | 0.00 | 42 | 1014.1 |
| 20260503070531 | 68 | 154 | 1.7 | 3.5 | 0.00 | 0.00 | 0.00 | 41 | 1014.1 |
| 20260503060253 | 70 | 188 | 1.7 | 3.5 | 0.00 | 0.00 | 0.00 | 35 | 1013.8 |
| 20260503054517 | 69 | 306 | 1.7 | 6.1 | 0.00 | 0.00 | 0.00 | 38 | 1013.8 |
| 20260503054016 | 69 | 174 | 1.7 | 6.1 | 0.00 | 0.00 | 0.00 | 37 | 1013.8 |
| 20260503053518 | 70 | 141 | 2.6 | 6.1 | 0.00 | 0.00 | 0.00 | 36 | 1013.8 |
| 20260503053014 | 70 | 122 | 2.6 | 6.1 | 0.00 | 0.00 | 0.00 | 36 | 1013.9 |
| 20260503052515 | 69 | 249 | 1.7 | 5.2 | 0.00 | 0.00 | 0.00 | 39 | 1013.8 |
| 20260503052249 | 70 | 145 | 2.6 | 5.2 | 0.00 | 0.00 | 0.00 | 36 | 1013.9 |
| 20260503051514 | 71 | 183 | 1.7 | 7.0 | 0.00 | 0.00 | 0.00 | 37 | 1013.9 |
| 20260503051014 | 71 | 328 | 0.9 | 7.0 | 0.00 | 0.00 | 0.00 | 36 | 1013.8 |
| 20260503050516 | 71 | 46 | 0.9 | 6.1 | 0.00 | 0.00 | 0.00 | 37 | 1013.9 |
| 20260503050014 | 71 | 359 | 2.6 | 7.8 | 0.00 | 0.00 | 0.00 | 36 | 1013.9 |
| 20260503045513 | 71 | 187 | 2.6 | 7.8 | 0.00 | 0.00 | 0.00 | 36 | 1013.9 |
| 20260503045012 | 71 | 170 | 2.6 | 7.8 | 0.00 | 0.00 | 0.00 | 36 | 1013.8 |
| 20260503044515 | 71 | 214 | 1.7 | 7.8 | 0.00 | 0.00 | 0.00 | 37 | 1013.8 |
| 20260503044248 | 71 | 164 | 0.9 | 3.5 | 0.00 | 0.00 | 0.00 | 37 | 1013.8 |
| 20260503043511 | 70 | 249 | 0.9 | 3.5 | 0.00 | 0.00 | 0.00 | 37 | 1013.7 |
| 20260503043245 | 70 | 50 | 1.7 | 5.2 | 0.00 | 0.00 | 0.00 | 38 | 1013.7 |
| 20260503042508 | 71 | 135 | 2.6 | 5.2 | 0.00 | 0.00 | 0.00 | 37 | 1013.6 |
| 20260503042010 | 72 | 151 | 1.7 | 5.2 | 0.00 | 0.00 | 0.00 | 36 | 1013.6 |
| 20260503041506 | 71 | 118 | 1.7 | 4.3 | 0.00 | 0.00 | 0.00 | 36 | 1013.5 |
| 20260503041005 | 71 | 153 | 1.7 | 3.5 | 0.00 | 0.00 | 0.00 | 36 | 1013.6 |
| 20260503040503 | 71 | 176 | 1.7 | 6.1 | 0.00 | 0.00 | 0.00 | 36 | 1013.5 |
| 20260503040004 | 71 | 317 | 1.7 | 6.1 | 0.00 | 0.00 | 0.00 | 37 | 1013.4 |
| 20260503035733 | 71 | 69 | 1.7 | 5.2 | 0.00 | 0.00 | 0.00 | 37 | 1013.4 |
| 20260503035002 | 70 | 324 | 1.7 | 5.2 | 0.00 | 0.00 | 0.00 | 39 | 1013.2 |
| 20260503034502 | 71 | 117 | 2.6 | 5.2 | 0.00 | 0.00 | 0.00 | 39 | 1013.2 |
| 20260503034001 | 70 | 126 | 1.7 | 3.5 | 0.00 | 0.00 | 0.00 | 39 | 1013.2 |
| 20260503033501 | 71 | 151 | 0.9 | 3.5 | 0.00 | 0.00 | 0.00 | 38 | 1013.1 |
| 20260503033001 | 71 | 178 | 0.9 | 3.5 | 0.00 | 0.00 | 0.00 | 38 | 1013.1 |
| 20260503032501 | 71 | 162 | 0.9 | 5.2 | 0.00 | 0.00 | 0.00 | 39 | 1013.1 |
| 20260503032002 | 72 | 300 | 0.9 | 5.2 | 0.00 | 0.00 | 0.00 | 37 | 1013.0 |
| 20260503031732 | 71 | 137 | 0.9 | 2.6 | 0.00 | 0.00 | 0.00 | 37 | 1013.0 |
| 20260503031002 | 71 | 122 | 1.7 | 3.5 | 0.00 | 0.00 | 0.00 | 40 | 1013.0 |
| 20260503030733 | 71 | 139 | 1.7 | 4.3 | 0.00 | 0.00 | 0.00 | 40 | 1013.0 |
| 20260503025501 | 72 | 156 | 1.7 | 4.3 | 0.00 | 0.00 | 0.00 | 38 | 1013.0 |
| 20260503025233 | 71 | 119 | 1.7 | 3.5 | 0.00 | 0.00 | 0.00 | 41 | 1013.0 |
| 20260503024501 | 71 | 120 | 0.9 | 2.6 | 0.00 | 0.00 | 0.00 | 40 | 1012.9 |
| 20260503024013 | 72 | 122 | 1.7 | 2.6 | 0.00 | 0.00 | 0.00 | 41 | 1012.9 |
| 20260503023507 | 72 | 122 | 1.7 | 3.5 | 0.00 | 0.00 | 0.00 | 42 | 1012.9 |
| 20260503023000 | 72 | 133 | 1.7 | 4.3 | 0.00 | 0.00 | 0.00 | 41 | 1012.9 |
| 20260503022720 | 72 | 106 | 1.7 | 4.3 | 0.00 | 0.00 | 0.00 | 41 | 1013.0 |
| 20260503021948 | 74 | 93 | 0.9 | 3.5 | 0.00 | 0.00 | 0.00 | 37 | 1012.9 |
| 20260503021442 | 74 | 93 | 0.9 | 3.5 | 0.00 | 0.00 | 0.00 | 38 | 1013.0 |
| 20260503020942 | 73 | 93 | 0.9 | 4.3 | 0.00 | 0.00 | 0.00 | 42 | 1013.1 |
| 20260503020711 | 73 | 92 | 0.9 | 4.3 | 0.00 | 0.00 | 0.00 | 42 | 1013.1 |
| 20260503015941 | 73 | 53 | 0.9 | 4.3 | 0.00 | 0.00 | 0.00 | 38 | 1013.2 |
| 20260503015447 | 74 | 50 | 0.9 | 4.3 | 0.00 | 0.00 | 0.00 | 40 | 1013.1 |
| 20260503015216 | 73 | 68 | 0.9 | 3.5 | 0.00 | 0.00 | 0.00 | 40 | 1013.2 |
| 20260503014709 | 74 | 97 | 1.7 | 4.3 | 0.00 | 0.00 | 0.00 | 37 | 1013.2 |
| 20260503013940 | 73 | 68 | 0.9 | 4.3 | 0.00 | 0.00 | 0.00 | 41 | 1013.1 |
| 20260503013440 | 75 | 109 | 1.7 | 3.5 | 0.00 | 0.00 | 0.00 | 39 | 1013.2 |
| 20260503012938 | 72 | 107 | 1.7 | 4.3 | 0.00 | 0.00 | 0.00 | 39 | 1013.2 |
| 20260503012700 | 74 | 165 | 1.7 | 4.3 | 0.00 | 0.00 | 0.00 | 41 | 1013.3 |
| 20260503011938 | 73 | 128 | 0.9 | 2.6 | 0.00 | 0.00 | 0.00 | 43 | 1013.3 |
| 20260503010934 | 74 | 249 | 0.9 | 3.5 | 0.00 | 0.00 | 0.00 | 38 | 1013.5 |
| 20260503010657 | 73 | 101 | 1.7 | 3.5 | 0.00 | 0.00 | 0.00 | 44 | 1013.5 |
| 20260503005935 | 74 | 101 | 1.7 | 5.2 | 0.00 | 0.00 | 0.00 | 43 | 1013.6 |
| 20260503005433 | 73 | 93 | 2.6 | 5.2 | 0.00 | 0.00 | 0.00 | 45 | 1013.6 |
| 20260503004933 | 74 | 64 | 2.6 | 5.2 | 0.00 | 0.00 | 0.00 | 43 | 1013.8 |
| 20260503004438 | 71 | 102 | 2.6 | 7.8 | 0.00 | 0.00 | 0.00 | 47 | 1013.8 |
| 20260503003933 | 70 | 93 | 2.6 | 7.8 | 0.00 | 0.00 | 0.00 | 48 | 1013.9 |
| 20260503003435 | 71 | 90 | 3.5 | 7.8 | 0.00 | 0.00 | 0.00 | 48 | 1013.9 |
| 20260503002932 | 69 | 101 | 2.6 | 7.8 | 0.00 | 0.00 | 0.00 | 49 | 1014.0 |
| 20260503002431 | 69 | 124 | 2.6 | 7.0 | 0.00 | 0.00 | 0.00 | 52 | 1014.1 |
| 20260503001929 | 70 | 106 | 2.6 | 5.2 | 0.00 | 0.00 | 0.00 | 52 | 1014.0 |
| 20260503001657 | 69 | 95 | 1.7 | 4.3 | 0.00 | 0.00 | 0.00 | 49 | 1014.1 |
| 20260503000930 | 71 | 70 | 2.6 | 7.0 | 0.00 | 0.00 | 0.00 | 50 | 1014.1 |
| 20260503000430 | 69 | 76 | 2.6 | 7.0 | 0.00 | 0.00 | 0.00 | 52 | 1014.1 |
| 20260502235930 | 71 | 201 | 2.6 | 6.1 | 0.00 | 0.00 | 0.00 | 48 | 1014.1 |
| 20260502235429 | 71 | 51 | 1.7 | 6.1 | 0.00 | 0.00 | 0.00 | 49 | 1014.1 |
| 20260502235149 | 71 | 66 | 1.7 | 5.2 | 0.00 | 0.00 | 0.00 | 49 | 1014.2 |
| 20260502234429 | 70 | 77 | 2.6 | 5.2 | 0.00 | 0.00 | 0.00 | 50 | 1014.2 |
| 20260502233929 | 70 | 67 | 2.6 | 7.0 | 0.00 | 0.00 | 0.00 | 53 | 1014.3 |
| 20260502233429 | 70 | 85 | 2.6 | 7.0 | 0.00 | 0.00 | 0.00 | 52 | 1014.4 |
| 20260502232929 | 70 | 172 | 1.7 | 7.0 | 0.00 | 0.00 | 0.00 | 49 | 1014.4 |
| 20260502232423 | 69 | 75 | 1.7 | 7.0 | 0.00 | 0.00 | 0.00 | 54 | 1014.5 |
| 20260502232143 | 70 | 63 | 2.6 | 7.0 | 0.00 | 0.00 | 0.00 | 50 | 1014.6 |
| 20260502231411 | 69 | 93 | 2.6 | 6.1 | 0.00 | 0.00 | 0.00 | 53 | 1014.7 |
| 20260502231132 | 69 | 89 | 2.6 | 7.0 | 0.00 | 0.00 | 0.00 | 49 | 1014.7 |
| 20260502230406 | 69 | 222 | 2.6 | 7.0 | 0.00 | 0.00 | 0.00 | 51 | 1014.7 |
| 20260502230128 | 68 | 50 | 2.6 | 6.1 | 0.00 | 0.00 | 0.00 | 52 | 1014.8 |
| 20260502225406 | 69 | 270 | 2.6 | 10.4 | 0.00 | 0.00 | 0.00 | 55 | 1014.9 |
| 20260502224906 | 68 | 49 | 2.6 | 10.4 | 0.00 | 0.00 | 0.00 | 54 | 1014.9 |
| 20260502224406 | 69 | 357 | 1.7 | 4.3 | 0.00 | 0.00 | 0.00 | 54 | 1015.1 |
| 20260502223906 | 69 | 307 | 1.7 | 4.3 | 0.00 | 0.00 | 0.00 | 54 | 1015.1 |
| 20260502223632 | 68 | 134 | 2.6 | 7.0 | 0.00 | 0.00 | 0.00 | 55 | 1015.2 |
| 20260502222904 | 67 | 64 | 2.6 | 7.0 | 0.00 | 0.00 | 0.00 | 58 | 1015.3 |
| 20260502222628 | 68 | 320 | 2.6 | 9.6 | 0.00 | 0.00 | 0.00 | 57 | 1015.3 |
| 20260502221901 | 67 | 57 | 2.6 | 9.6 | 0.00 | 0.00 | 0.00 | 54 | 1015.4 |
| 20260502221401 | 68 | 304 | 2.6 | 7.0 | 0.00 | 0.00 | 0.00 | 58 | 1015.5 |
| 20260502220901 | 67 | 308 | 2.6 | 7.0 | 0.00 | 0.00 | 0.00 | 57 | 1015.5 |
| 20260502220404 | 67 | 134 | 2.6 | 7.0 | 0.00 | 0.00 | 0.00 | 56 | 1015.4 |
| 20260502215906 | 66 | 25 | 2.6 | 7.0 | 0.00 | 0.00 | 0.00 | 59 | 1015.5 |
| 20260502215622 | 67 | 272 | 2.6 | 7.0 | 0.00 | 0.00 | 0.00 | 59 | 1015.7 |
| 20260502214901 | 65 | 58 | 2.6 | 7.8 | 0.00 | 0.00 | 0.00 | 60 | 1015.7 |
| 20260502214401 | 67 | 318 | 2.6 | 7.8 | 0.00 | 0.00 | 0.00 | 58 | 1015.7 |
| 20260502213857 | 66 | 16 | 2.6 | 7.0 | 0.00 | 0.00 | 0.00 | 58 | 1015.8 |
| 20260502213351 | 66 | 188 | 2.6 | 7.8 | 0.00 | 0.00 | 0.00 | 59 | 1015.9 |